Total_Precipitation_Accumulation
0.30 0.16 0.30 0.33 0.29 0.27 0.33 0.41 0.43 0.42 0.45 0.55 0.52 0.47 0.42 0.26 0.20 0.18 0.19 0.20 0.27 0.38 0.37 0.33 0.30 0.26 0.20 0.19 0.23 0.29 0.36 0.44 0.49 0.51 0.59 0.62 0.58 0.58 0.68 0.77 0.82 1.02 0.67
0.30 0.21 0.32 0.35 0.29 0.25 0.28 0.33 0.39 0.39 0.41 0.48 0.49 0.49 0.36 0.22 0.18 0.17 0.17 0.18 0.22 0.27 0.28 0.31 0.34 0.30 0.23 0.26 0.31 0.34 0.36 0.41 0.50 0.53 0.67 0.67 0.57 0.60 0.57 0.58 0.71 0.89 0.64
0.30 0.22 0.27 0.36 0.30 0.26 0.27 0.35 0.42 0.44 0.47 0.51 0.53 0.53 0.31 0.18 0.17 0.17 0.19 0.21 0.23 0.19 0.21 0.28 0.33 0.32 0.27 0.30 0.37 0.38 0.39 0.41 0.48 0.55 0.88 1.23 0.77 0.63 0.63 0.65 0.65 0.59 0.62
0.33 0.30 0.37 0.46 0.39 0.33 0.35 0.45 0.53 0.59 0.62 0.68 0.66 0.49 0.26 0.20 0.21 0.21 0.24 0.27 0.23 0.16 0.16 0.20 0.26 0.27 0.24 0.29 0.35 0.34 0.40 0.44 0.53 0.62 0.94 1.31 1.12 0.87 0.80 0.79 0.71 0.53 0.59
0.34 0.41 0.55 0.58 0.50 0.45 0.45 0.53 0.65 0.73 0.72 0.75 0.70 0.45 0.30 0.26 0.24 0.26 0.30 0.26 0.18 0.15 0.13 0.14 0.18 0.19 0.19 0.20 0.25 0.31 0.38 0.49 0.66 0.72 0.96 1.23 1.31 0.93 0.79 0.88 0.85 0.66 0.67
0.31 0.35 0.47 0.57 0.52 0.51 0.57 0.63 0.65 0.60 0.61 0.69 0.61 0.46 0.33 0.33 0.32 0.33 0.27 0.18 0.15 0.15 0.13 0.12 0.14 0.14 0.15 0.14 0.19 0.28 0.40 0.52 0.64 0.81 0.99 1.26 1.24 0.83 0.72 0.84 0.91 0.83 0.76
0.40 0.36 0.44 0.52 0.48 0.48 0.58 0.66 0.67 0.57 0.61 0.65 0.62 0.55 0.38 0.36 0.36 0.35 0.26 0.19 0.17 0.16 0.14 0.13 0.12 0.10 0.10 0.12 0.15 0.23 0.35 0.37 0.55 0.79 0.96 1.26 0.98 0.64 0.57 0.75 0.98 1.02 0.92
0.55 0.49 0.46 0.53 0.50 0.50 0.56 0.64 0.66 0.64 0.70 0.67 0.55 0.50 0.47 0.38 0.36 0.32 0.25 0.22 0.19 0.19 0.20 0.15 0.10 0.09 0.10 0.13 0.16 0.20 0.26 0.25 0.35 0.57 0.76 1.02 0.86 0.70 0.52 0.59 0.81 0.95 0.98
0.65 0.61 0.56 0.56 0.57 0.59 0.68 0.68 0.71 0.77 0.86 0.82 0.61 0.52 0.53 0.41 0.32 0.28 0.26 0.23 0.20 0.21 0.23 0.18 0.12 0.10 0.11 0.14 0.16 0.16 0.19 0.22 0.32 0.45 0.56 0.76 0.75 0.68 0.50 0.52 0.67 0.79 0.92
0.64 0.62 0.56 0.57 0.61 0.65 0.74 0.78 0.79 0.79 0.86 0.84 0.71 0.66 0.64 0.47 0.35 0.31 0.28 0.29 0.28 0.27 0.29 0.24 0.18 0.15 0.13 0.13 0.13 0.13 0.14 0.18 0.32 0.37 0.49 0.50 0.61 0.55 0.41 0.41 0.49 0.58 0.65
0.58 0.61 0.58 0.56 0.60 0.66 0.76 0.78 0.87 0.88 0.91 0.84 0.76 0.79 0.69 0.49 0.44 0.43 0.35 0.38 0.40 0.44 0.39 0.33 0.27 0.20 0.13 0.10 0.10 0.09 0.07 0.16 0.30 0.31 0.39 0.45 0.54 0.45 0.34 0.35 0.39 0.39 0.42
0.61 0.64 0.62 0.65 0.64 0.64 0.68 0.93 1.09 0.97 0.88 0.77 0.79 0.76 0.72 0.67 0.64 0.46 0.44 0.50 0.50 0.50 0.46 0.39 0.35 0.22 0.11 0.06 0.08 0.08 0.05 0.11 0.22 0.22 0.25 0.41 0.49 0.43 0.32 0.30 0.32 0.32 0.31
0.63 0.65 0.61 0.59 0.54 0.55 0.69 0.87 1.05 1.10 1.07 1.04 0.90 0.89 0.84 0.74 0.62 0.46 0.43 0.45 0.45 0.45 0.41 0.42 0.37 0.22 0.14 0.10 0.11 0.09 0.07 0.11 0.18 0.22 0.28 0.47 0.51 0.42 0.37 0.30 0.29 0.29 0.27
0.55 0.58 0.55 0.53 0.51 0.49 0.50 0.61 0.76 0.83 0.82 0.84 0.85 0.79 0.80 0.80 0.72 0.60 0.54 0.57 0.57 0.51 0.50 0.51 0.44 0.32 0.24 0.18 0.17 0.17 0.15 0.13 0.17 0.24 0.31 0.50 0.61 0.51 0.45 0.37 0.34 0.31 0.29
0.48 0.51 0.55 0.58 0.55 0.61 0.60 0.57 0.56 0.62 0.67 0.72 0.79 0.72 0.66 0.69 0.71 0.72 0.64 0.67 0.63 0.60 0.58 0.54 0.39 0.34 0.33 0.24 0.23 0.22 0.21 0.18 0.20 0.22 0.28 0.47 0.71 0.82 0.71 0.56 0.46 0.38 0.36
0.46 0.57 0.62 0.58 0.61 0.60 0.56 0.59 0.62 0.62 0.65 0.68 0.72 0.65 0.59 0.59 0.61 0.71 0.68 0.71 0.62 0.63 0.68 0.59 0.49 0.46 0.40 0.29 0.23 0.24 0.21 0.18 0.19 0.25 0.31 0.43 0.62 0.89 1.04 0.86 0.72 0.62 0.48
0.43 0.57 0.68 0.66 0.69 0.65 0.60 0.63 0.66 0.65 0.62 0.65 0.69 0.62 0.57 0.60 0.61 0.72 0.75 0.72 0.68 0.70 0.70 0.71 0.67 0.58 0.46 0.35 0.28 0.24 0.20 0.20 0.20 0.22 0.25 0.37 0.41 0.50 0.78 0.97 0.98 0.90 0.69
0.40 0.51 0.63 0.65 0.70 0.73 0.72 0.72 0.69 0.65 0.66 0.71 0.74 0.70 0.65 0.63 0.66 0.84 0.89 0.77 0.81 0.87 0.86 0.85 0.79 0.70 0.57 0.48 0.42 0.33 0.25 0.23 0.26 0.24 0.24 0.27 0.22 0.18 0.27 0.39 0.49 0.64 0.74
0.40 0.47 0.52 0.58 0.78 0.81 0.77 0.83 0.83 0.80 0.85 0.89 0.91 0.89 0.83 0.80 0.88 1.04 1.10 1.01 0.98 1.09 1.02 0.90 0.88 0.87 0.75 0.68 0.59 0.50 0.36 0.28 0.28 0.25 0.26 0.31 0.27 0.18 0.17 0.16 0.21 0.27 0.42
0.34 0.39 0.46 0.55 0.67 0.79 0.94 1.02 1.10 1.11 1.11 1.22 1.30 1.28 1.11 1.06 1.12 1.26 1.35 1.31 1.26 1.34 1.31 1.14 1.19 1.17 1.02 0.98 0.82 0.66 0.52 0.44 0.39 0.31 0.29 0.36 0.37 0.29 0.21 0.15 0.17 0.13 0.18
0.25 0.31 0.37 0.54 0.70 0.86 0.98 1.12 1.38 1.54 1.64 1.62 1.63 1.70 1.62 1.43 1.49 1.60 1.56 1.77 1.82 1.77 1.76 1.67 1.72 1.71 1.42 1.20 1.35 1.24 0.84 0.58 0.49 0.45 0.39 0.37 0.35 0.33 0.29 0.24 0.23 0.20 0.13
0.16 0.22 0.30 0.44 0.67 0.92 1.14 1.33 1.52 1.83 1.99 1.99 2.05 2.00 1.95 1.83 1.82 1.74 1.79 2.00 2.04 2.13 2.21 2.03 2.08 2.10 1.77 1.44 1.70 1.95 1.44 1.04 0.61 0.43 0.43 0.43 0.41 0.39 0.34 0.30 0.28 0.25 0.20
0.09 0.14 0.21 0.34 0.57 0.88 1.19 1.44 1.63 1.87 2.14 2.23 2.13 2.09 2.12 2.19 2.22 2.10 2.05 2.15 2.16 2.21 2.35 2.38 2.31 2.31 2.16 1.84 1.76 2.02 1.78 1.48 1.15 0.62 0.47 0.52 0.55 0.49 0.47 0.44 0.38 0.35 0.29
0.10 0.13 0.17 0.32 0.48 0.72 0.99 1.31 1.57 1.83 2.14 2.22 2.19 2.16 2.20 2.31 2.39 2.34 2.28 2.32 2.30 2.23 2.28 2.37 2.36 2.49 2.59 2.27 2.01 1.75 1.55 1.50 1.45 1.08 0.69 0.58 0.65 0.64 0.59 0.50 0.44 0.43 0.40
0.15 0.18 0.24 0.38 0.53 0.74 0.98 1.30 1.62 1.81 1.98 2.17 2.19 2.10 2.03 2.08 2.09 2.08 2.18 2.30 2.29 2.26 2.24 2.39 2.51 2.64 2.58 2.46 2.26 2.08 1.89 1.66 1.30 1.30 1.20 0.94 0.81 0.69 0.69 0.71 0.65 0.59 0.52
0.24 0.30 0.38 0.50 0.71 0.87 0.97 1.11 1.28 1.49 1.77 1.91 2.00 2.04 2.04 2.00 1.86 1.81 1.90 1.99 2.07 2.11 2.10 2.12 2.25 2.38 2.50 2.59 2.48 2.25 2.09 1.92 1.71 1.58 1.29 1.15 1.12 0.90 0.77 0.74 0.78 0.77 0.76